Dewpoint
62 61 61 61 60 59 59 58 57 55 54 54 53 52 52 51 51 52 52 53 52 51 50 49 47 46 44 43 42 42 42 42 43 43 43 42 42 42 41 39 38 40 41 42 40 40 38 37 38 39 40 39 37 37 35 34 35 36 35 32 32 36 34 35 32 33 34 35 35 32 35 38 32 31 29 33 33 32 36 36 38 38 37 37 37
61 60 61 60 59 59 59 58 55 54 54 53 53 51 50 51 52 51 53 52 51 49 48 48 47 45 43 42 41 39 39 40 41 41 40 43 43 42 42 39 38 39 41 39 41 40 41 38 38 40 39 38 38 34 31 31 27 31 31 34 30 33 35 36 34 32 34 36 34 36 33 36 34 31 33 35 34 34 36 35 35 33 35 37 36
59 59 60 59 58 58 57 55 54 54 54 52 51 50 51 51 51 52 51 50 50 49 48 47 45 44 43 42 38 38 38 38 41 40 41 41 40 42 41 40 40 40 39 38 37 40 40 41 40 40 41 40 39 38 38 35 32 30 32 31 33 34 35 37 37 34 35 34 36 32 33 34 35 30 29 30 32 33 32 34 35 37 37 38 37
58 58 58 58 58 56 55 55 55 55 53 52 51 51 50 50 50 51 50 49 47 49 48 46 45 44 42 39 37 37 38 39 39 37 37 39 39 39 39 40 39 38 39 37 37 38 38 39 40 41 40 39 37 36 36 37 36 34 34 34 33 33 37 38 37 37 36 36 36 31 32 33 32 32 28 31 32 33 33 37 38 37 36 36 37
57 58 57 57 56 55 54 53 53 53 52 51 51 50 50 50 50 49 50 49 48 48 47 45 44 42 43 38 37 37 37 37 37 38 39 40 39 39 38 38 40 39 40 39 39 38 39 39 39 39 39 39 38 36 35 38 33 35 36 33 31 34 37 37 37 37 37 35 35 35 34 34 33 34 31 31 34 33 34 35 36 35 35 37 38
57 56 56 55 54 53 53 53 52 51 51 50 49 49 49 49 49 50 48 47 48 47 46 44 42 41 39 37 36 35 35 36 36 36 37 39 40 40 40 40 39 38 39 39 38 39 40 39 39 38 38 38 38 37 38 37 36 35 36 36 31 35 38 37 37 37 36 35 35 33 35 33 33 33 30 32 33 32 31 34 35 35 35 37 37
56 55 54 54 53 52 52 52 51 50 50 49 49 48 48 49 48 48 47 47 46 46 44 43 43 40 38 38 36 36 36 36 37 37 36 37 39 39 40 40 40 40 39 37 37 39 40 39 39 38 37 37 36 35 36 38 37 36 36 37 32 36 36 35 35 35 35 35 34 34 33 33 33 31 30 31 32 32 33 33 33 32 35 36 37
56 55 54 53 52 52 51 50 50 49 48 48 47 48 48 48 48 48 47 46 45 44 43 43 43 40 40 38 37 37 37 36 36 36 36 38 40 40 40 41 40 40 40 38 39 39 39 38 37 36 35 34 36 35 34 34 35 35 33 34 34 35 34 34 33 31 33 34 32 31 31 31 30 34 34 33 32 31 33 34 32 32 33 35 37
55 54 53 51 50 50 49 49 48 47 46 46 47 47 47 48 48 47 47 46 46 44 44 43 42 40 40 40 37 38 39 39 37 37 38 37 40 40 40 39 40 39 38 38 38 38 37 37 37 36 39 40 40 40 39 39 36 32 32 32 34 35 34 34 32 31 32 33 32 33 31 29 31 33 31 31 31 31 34 36 34 33 33 34 35
53 52 50 49 49 48 47 47 46 46 45 46 46 47 47 48 48 47 46 46 45 44 44 44 41 41 40 39 39 41 40 40 42 42 41 39 40 41 41 40 38 38 38 39 38 38 37 37 37 42 43 42 41 40 39 39 39 38 33 33 32 33 33 33 31 32 33 32 31 32 31 30 31 33 32 33 34 35 35 35 34 33 34 34 35
51 50 49 48 47 46 46 46 45 44 45 45 46 46 47 48 47 46 46 46 46 45 44 42 42 42 41 41 41 41 41 41 40 38 39 39 42 41 40 39 38 39 39 39 39 39 38 36 39 39 37 41 44 39 39 38 38 38 39 39 37 35 34 31 32 34 31 35 33 33 30 31 33 32 32 32 34 35 33 34 35 33 32 30 31
51 49 48 47 46 45 45 44 44 44 45 44 45 45 46 46 46 45 46 47 46 46 45 43 43 43 42 41 42 42 42 43 38 38 39 38 40 41 40 40 40 39 38 38 38 38 39 38 38 37 33 36 36 38 41 39 37 37 37 37 37 37 37 34 33 32 34 35 33 34 32 32 32 32 31 33 33 33 34 35 35 32 33 32 30
50 48 47 46 46 46 45 44 44 44 44 44 44 45 44 44 44 45 46 47 46 46 44 44 44 43 43 41 42 41 41 38 38 38 38 38 38 41 38 41 40 39 38 38 38 38 38 37 38 38 35 41 34 33 33 33 38 38 39 39 37 36 34 34 35 37 36 36 36 34 33 33 32 31 34 35 36 34 33 33 35 34 34 33 29
48 48 47 47 46 46 45 44 44 44 44 44 44 43 43 43 45 45 46 47 46 45 46 45 45 44 43 42 42 41 41 39 38 38 38 37 37 38 40 41 41 38 38 39 39 38 38 38 36 36 37 35 33 32 32 33 35 33 33 31 33 39 36 35 33 35 38 37 36 34 35 35 32 33 35 36 35 33 33 34 36 34 33 33 34
49 48 47 46 46 46 46 45 45 44 43 43 43 42 42 44 44 44 45 45 46 46 46 47 46 45 44 46 43 41 42 38 38 38 38 37 37 38 42 42 40 40 40 40 39 39 38 39 37 36 37 35 36 37 34 32 36 33 31 32 33 35 34 29 29 31 33 35 35 35 34 33 34 36 36 34 35 35 36 36 36 36 34 34 33
48 47 46 45 46 46 46 46 44 43 43 42 42 41 43 44 44 47 47 48 48 48 48 47 46 46 43 42 42 42 46 37 38 38 38 37 38 40 41 41 41 40 39 39 38 37 37 38 37 36 37 35 37 36 37 36 36 31 31 34 34 33 32 37 33 34 37 35 35 35 35 37 36 40 40 38 36 35 36 34 35 35 32 28 28
47 47 46 45 45 45 45 44 43 42 42 41 41 42 44 45 45 45 45 45 44 44 45 44 43 42 43 43 43 43 45 40 38 38 38 37 38 39 42 39 39 40 39 37 36 36 38 37 36 34 36 34 38 35 35 35 35 31 32 35 34 32 30 33 33 34 35 35 35 35 35 35 35 36 35 36 39 37 34 31 32 32 31 30 31
48 47 46 45 45 44 43 41 41 41 41 40 41 42 42 43 43 44 43 43 43 42 43 42 43 42 43 42 43 43 42 41 38 38 38 37 39 40 40 39 40 39 38 38 37 35 34 43 44 35 35 35 35 35 34 38 34 33 36 33 32 31 30 32 34 35 33 33 34 35 35 35 35 36 36 35 35 37 33 31 34 30 31 31 28
48 47 46 45 43 42 41 41 40 40 40 40 42 41 41 41 42 43 42 43 42 42 42 41 42 43 43 43 45 44 43 42 37 37 38 38 40 42 40 37 38 39 36 35 37 35 34 38 42 39 38 41 34 35 34 35 35 35 35 33 30 31 31 32 34 34 35 37 38 37 34 34 34 32 33 33 33 35 34 35 31 30 30 31 31
47 47 46 45 43 42 42 41 41 40 39 40 39 38 38 38 40 39 38 37 38 40 40 40 42 42 43 43 45 44 44 43 41 37 37 38 38 43 41 37 37 38 36 32 34 35 36 36 38 35 35 35 35 34 34 34 37 37 33 31 31 29 31 33 35 35 36 36 35 35 34 33 33 32 31 31 31 32 34 33 32 32 32 30 32
47 46 45 44 43 42 41 41 41 40 39 40 41 41 40 40 40 39 37 36 36 38 40 42 42 42 43 44 43 43 44 43 42 36 37 37 37 38 42 39 38 36 35 32 31 33 33 33 35 37 35 35 35 34 34 34 34 39 33 32 32 37 33 34 36 38 36 35 34 32 31 30 31 30 28 28 26 30 33 33 31 33 33 32 31
47 46 45 44 43 42 41 41 41 41 41 42 42 42 41 39 38 38 35 37 39 40 41 41 40 41 42 42 42 43 43 44 43 37 36 36 36 36 41 40 39 36 34 30 30 31 31 30 35 37 35 35 34 35 34 34 34 38 39 30 32 32 37 34 36 34 33 33 29 28 30 27 26 29 27 28 28 33 34 32 32 33 33 34 34
47 46 46 44 44 43 42 42 42 42 42 43 42 42 41 40 39 38 37 38 40 40 40 40 40 40 41 40 41 42 42 41 39 40 36 36 36 36 36 40 32 43 35 32 32 31 31 34 38 37 35 35 35 35 35 34 34 36 30 33 33 32 34 35 32 33 32 31 31 31 29 28 29 26 27 30 32 35 31 32 32 32 32 33 34
47 47 46 46 46 44 42 41 41 42 43 42 42 43 41 40 38 37 37 37 37 38 37 39 38 38 38 37 38 38 39 38 37 37 38 35 35 35 34 35 32 37 38 34 33 31 31 35 39 34 35 35 35 35 35 34 31 31 32 33 33 33 34 33 29 32 31 28 28 28 29 28 29 29 30 33 32 33 32 32 33 32 31 32 32
48 47 46 45 45 44 42 42 42 42 42 42 42 42 42 40 36 34 36 34 33 33 33 36 36 36 35 35 35 35 35 33 36 37 36 35 35 35 34 34 33 34 39 36 34 35 38 34 33 34 35 35 35 34 33 32 31 32 33 32 35 32 32 29 30 32 28 28 28 30 29 29 29 30 34 34 34 33 32 33 33 33 32 32 32
47 46 45 45 45 43 43 42 42 42 43 42 43 42 41 37 34 33 34 31 31 32 33 31 32 32 31 31 31 32 34 35 34 37 37 36 36 35 35 35 36 36 36 39 33 33 34 34 32 30 31 34 37 35 33 33 33 33 33 34 36 31 28 27 29 28 28 28 28 28 28 29 29 33 34 33 30 28 30 30 30 30 32 30 27
47 47 47 46 47 46 43 42 42 43 42 41 41 41 39 37 37 35 33 31 31 28 29 29 29 27 28 28 29 31 32 33 33 34 34 34 34 35 36 35 36 36 36 35 37 32 38 37 33 34 33 33 35 33 30 30 30 31 31 31 30 27 27 27 28 31 32 28 26 27 28 29 31 31 29 28 28 28 31 29 29 29 31 29 27
48 48 46 46 46 47 45 40 42 42 41 41 42 40 39 39 37 36 33 33 31 29 28 27 26 28 28 27 29 29 29 30 32 33 33 33 33 31 32 32 33 31 29 30 31 32 34 36 35 37 34 34 33 30 30 34 31 30 31 27 28 28 30 33 34 34 31 27 26 27 28 30 29 29 28 27 26 27 30 29 30 29 30 29 27
48 47 46 46 46 45 45 44 43 43 42 42 42 41 40 40 38 38 38 36 36 34 32 28 26 28 27 27 29 30 28 28 31 32 34 33 32 33 32 31 31 30 34 33 33 37 33 33 31 31 30 29 29 30 28 28 30 30 33 33 30 28 29 25 28 26 26 28 28 28 27 27 28 28 27 27 28 27 30 29 32 31 30 29 26
47 46 46 45 45 44 44 43 43 42 43 44 41 42 36 37 40 40 38 37 36 35 33 31 30 28 27 28 31 28 27 28 32 32 33 33 33 32 32 33 34 34 34 32 36 33 33 31 32 31 30 29 27 28 27 26 27 26 27 27 28 29 26 27 27 26 28 29 28 28 28 29 29 28 27 27 28 28 28 28 29 30 28 29 28
45 46 45 45 44 45 44 43 43 42 44 43 42 41 40 40 34 35 36 38 36 35 34 35 33 33 30 29 37 34 33 32 32 32 33 33 33 32 31 33 34 33 33 34 30 28 30 31 27 26 25 26 25 24 25 26 26 30 27 27 30 28 26 30 28 28 29 31 30 30 30 30 30 29 28 29 30 29 30 30 28 29 26 28 26
45 45 45 45 43 43 43 43 43 43 44 42 42 41 40 41 44 37 35 35 35 35 35 36 36 36 36 38 34 36 35 34 33 33 33 32 32 32 31 33 34 34 33 33 28 25 28 27 26 25 26 26 27 26 25 26 27 28 27 27 27 27 28 29 29 29 29 28 27 27 29 29 29 29 31 29 28 29 30 28 29 29 29 27 28
46 46 45 45 43 42 42 43 43 43 44 43 43 42 41 40 39 39 38 35 35 35 36 36 36 36 36 36 36 35 33 34 34 34 33 32 31 31 32 33 34 34 34 32 26 25 26 28 29 28 27 26 26 28 28 30 29 28 30 28 27 27 29 31 31 32 30 29 31 29 29 29 29 29 28 28 28 28 28 28 28 28 28 27 26
46 46 45 44 43 43 43 43 43 43 43 43 43 41 39 41 41 40 39 39 38 38 35 36 36 36 36 36 36 36 35 33 33 34 34 33 32 32 31 33 34 34 33 30 29 28 29 28 28 28 27 29 28 29 30 29 28 28 28 28 28 30 30 32 30 28 27 27 30 28 29 29 27 28 29 28 29 28 30 27 29 29 28 27 27
47 42 39 41 44 43 43 43 43 43 43 42 42 40 39 40 41 41 39 38 39 38 38 38 36 36 37 36 36 36 35 35 33 33 33 33 33 32 32 32 29 31 32 31 30 29 29 30 28 28 29 28 28 28 29 31 29 29 29 29 28 28 28 27 26 27 30 28 28 29 27 29 30 28 27 27 27 26 27 28 29 28 28 29 28
47 46 45 44 45 43 43 43 43 42 42 42 42 41 40 41 40 40 39 39 39 38 38 38 40 36 36 36 36 36 36 35 35 34 33 32 32 32 27 26 26 27 26 26 27 27 29 28 27 28 28 29 31 30 28 31 30 29 28 28 30 27 28 27 28 27 31 30 27 28 29 30 28 28 29 28 29 27 27 28 28 28 29 28 28
46 45 45 44 44 44 44 43 43 43 40 41 41 41 40 41 39 40 39 38 38 37 35 35 37 39 36 38 36 35 35 35 35 34 34 33 33 31 24 21 24 24 24 25 26 26 26 27 29 27 27 30 28 29 28 29 31 30 30 28 27 28 29 29 27 28 28 26 28 29 31 31 29 30 28 27 26 27 27 27 28 27 27 27 28
46 45 44 44 44 44 44 43 42 39 40 41 41 40 40 40 40 38 38 36 35 33 32 34 36 36 35 37 38 37 35 34 34 34 34 33 31 29 27 24 23 22 22 21 23 24 23 23 25 26 28 29 30 30 29 29 29 29 31 28 27 27 29 28 30 34 34 32 30 29 27 27 27 26 25 25 25 25 26 26 27 26 27 27 26
46 40 39 38 40 44 43 42 41 41 40 40 40 39 38 39 40 37 36 36 34 32 31 33 33 32 33 36 36 37 34 34 34 33 32 32 31 30 29 30 27 24 23 22 23 20 20 23 25 27 28 28 30 29 29 28 27 27 28 28 30 28 27 26 28 29 25 25 25 25 25 25 25 25 25 25 25 26 27 28 28 28 27 26 26
45 43 40 37 41 41 41 40 40 40 39 40 40 40 38 38 37 37 37 37 36 32 31 35 34 35 34 38 36 35 34 34 33 33 33 32 32 32 32 30 29 27 26 24 23 21 23 24 25 26 28 29 29 28 28 28 30 26 26 27 26 25 26 27 25 25 25 25 25 25 25 26 26 26 26 25 25 26 27 27 27 27 28 28 27
44 43 39 38 39 41 40 41 40 40 40 39 39 39 38 38 38 37 37 36 35 34 33 34 34 35 36 37 35 34 35 34 34 34 35 34 33 33 32 31 30 29 28 26 25 23 22 24 25 29 28 28 28 28 29 29 28 27 27 26 27 25 26 27 28 27 27 28 27 27 26 27 26 26 26 26 28 27 26 26 26 26 26 27 27
44 42 41 41 41 41 40 40 40 38 39 39 39 39 38 38 38 37 37 37 36 35 34 33 32 35 35 35 34 34 34 34 34 34 34 34 33 33 33 33 32 31 30 27 25 24 23 24 25 27 27 27 28 30 30 30 29 28 28 27 28 26 26 24 25 26 27 27 28 28 28 28 28 27 27 30 27 27 27 27 27 27 27 27 27
43 42 41 40 41 41 40 40 40 39 39 39 38 37 37 37 37 36 37 36 36 35 34 34 36 35 35 33 34 33 34 34 33 35 34 33 33 33 33 33 33 32 31 29 26 25 24 24 27 25 27 30 31 30 31 30 29 29 28 29 28 29 29 27 26 26 26 26 27 28 29 29 28 28 27 27 28 27 27 28 28 28 28 28 28
42 41 41 40 40 40 40 39 39 38 39 37 37 37 37 37 37 36 36 36 35 35 34 34 34 34 34 33 33 33 34 34 35 34 35 34 34 32 32 33 32 32 32 30 28 26 24 25 29 28 31 30 32 35 34 33 31 31 28 27 26 26 26 27 27 27 27 27 27 28 28 28 28 28 28 28 28 28 28 29 29 28 28 29 28
44 41 40 40 40 41 40 39 38 39 38 37 38 37 35 36 36 35 35 35 34 35 33 33 34 35 32 32 32 32 33 33 33 33 32 33 32 32 33 33 33 33 31 30 29 30 30 29 29 30 31 31 32 35 36 36 36 34 31 30 29 26 26 27 29 29 29 30 28 27 27 26 27 26 26 26 27 28 27 28 28 28 28 28 29
42 41 40 40 40 40 39 39 38 38 38 37 37 37 36 35 35 35 34 34 34 33 33 33 33 33 32 32 31 30 31 33 33 33 32 32 32 32 32 32 31 31 31 29 29 32 30 31 31 32 32 33 34 34 34 36 36 34 35 33 34 33 33 34 33 33 32 32 29 28 27 27 27 27 27 27 27 27 28 29 30 29 29 29 29
43 41 40 40 40 39 40 40 38 38 37 37 37 36 35 35 35 34 33 34 33 33 33 33 33 32 33 32 32 32 32 31 31 31 31 32 32 31 32 31 29 28 27 29 31 31 34 34 34 34 34 34 34 36 36 33 32 30 32 30 32 35 34 32 34 34 33 33 33 31 29 28 27 27 27 28 28 28 29 29 29 30 30 30 30
42 40 40 39 39 39 39 39 39 36 37 36 36 36 35 34 34 34 34 33 32 32 32 33 33 32 32 32 32 32 32 31 30 29 28 28 29 28 28 30 30 29 30 31 33 34 33 34 35 35 34 35 34 34 35 36 34 33 32 31 31 35 38 33 34 34 34 34 34 34 33 32 30 30 29 30 30 29 29 29 29 29 29 29 29
41 41 40 39 39 39 39 39 38 38 38 37 36 35 35 34 34 34 33 33 32 32 32 32 32 32 33 31 31 30 30 29 29 28 27 26 28 29 30 32 33 33 32 33 34 35 36 36 36 35 35 35 35 35 34 35 34 33 34 33 37 31 33 32 32 31 34 33 32 32 33 33 33 33 32 32 31 31 31 31 31 30 30 31 30
41 41 41 41 41 41 40 39 39 39 38 38 37 36 35 34 34 34 34 33 32 32 32 32 32 32 31 31 31 31 32 31 30 29 29 29 29 32 33 36 37 36 35 34 34 34 36 36 37 36 35 35 34 34 34 33 33 33 33 36 33 33 33 33 33 33 33 32 32 32 33 33 33 33 32 33 33 33 33 32 32 31 30 31 31
42 41 41 40 40 40 40 40 40 39 39 38 37 36 35 34 34 34 33 33 33 33 32 32 33 33 33 34 33 33 33 33 34 33 32 32 33 33 35 35 36 38 37 36 35 35 35 35 34 34 34 33 33 32 33 33 33 34 32 33 32 32 32 32 33 33 33 33 33 33 32 33 33 33 32 32 32 32 31 31 31 31 30 30 30